Retour au catalogue

STARLINK-34592

ActifCommunicationsVLEO
NORAD 64746·PAYLOAD·🇺🇸 United States

Lancé Jul 2, 2025 depuis Cape Canaveral Space Force Station

Loading…

Prochains Passages (prochaines 24 heures)

TLE

FraisSource: CelesTrak SupGP

Époque: Sep 14, 2026, 22:32 UTC

1 64746C 25144Y   26257.93937500 -.00006110  00000+0 -18054-3 0  2578
2 64746  53.1608   7.6271 0001209  74.4374 128.1380 15.34392726    12

Suivez STARLINK-34592 en temps réel avec AllMySat

Download on the App Store